| time (UTC) | temp F | wind direction | speed MPH | gust MPH | rain 1hr in | rain 24hr in | rain mn in | humidity % | barometer mb |
| 20260906081510 | 57 | 256 | 0.0 | 0.0 | 0.02 | 0.49 | 0.19 | 97 | 1014.1 |
| 20260906080026 | 57 | 256 | 0.0 | 2.0 | 0.07 | 0.48 | 0.18 | 97 | 1014.1 |
| 20260906074524 | 57 | 256 | 0.0 | 2.0 | 0.11 | 0.48 | 0.18 | 97 | 1013.9 |
| 20260906073025 | 57 | 196 | 0.0 | 2.0 | 0.16 | 0.47 | 0.17 | 97 | 1014.0 |
| 20260906071531 | 57 | 306 | 0.0 | 2.0 | 0.16 | 0.47 | 0.17 | 96 | 1013.9 |
| 20260906070015 | 57 | 306 | 0.0 | 2.0 | 0.10 | 0.41 | 0.11 | 96 | 1013.9 |
| 20260906064515 | 57 | 306 | 0.0 | 2.0 | 0.06 | 0.37 | 0.07 | 96 | 1014.0 |
| 20260906063027 | 57 | 306 | 0.0 | 2.0 | 0.00 | 0.31 | 0.01 | 96 | 1013.9 |
| 20260906061532 | 57 | 67 | 0.0 | 1.0 | 0.00 | 0.31 | 0.01 | 97 | 1013.8 |
| 20260906060033 | 57 | 9 | 0.0 | 0.0 | 0.00 | 0.31 | 0.01 | 97 | 1013.7 |
| 20260906054516 | 57 | 9 | 0.0 | 0.0 | 0.00 | 0.31 | 0.01 | 96 | 1013.8 |
| 20260906053020 | 57 | 9 | 0.0 | 0.0 | 0.00 | 0.31 | 0.01 | 96 | 1013.8 |
| 20260906051527 | 57 | 9 | 0.0 | 0.0 | 0.01 | 0.31 | 0.01 | 96 | 1013.8 |
| 20260906050027 | 57 | 9 | 0.0 | 0.0 | 0.01 | 0.31 | 0.01 | 96 | 1013.8 |
| 20260906044514 | 57 | 9 | 0.0 | 2.0 | 0.01 | 0.31 | 0.01 | 96 | 1014.0 |
| 20260906043029 | 57 | 9 | 0.0 | 2.0 | 0.01 | 0.31 | 0.01 | 96 | 1013.9 |
| 20260906041526 | 57 | 9 | 0.0 | 0.0 | 0.00 | 0.30 | 0.00 | 96 | 1013.9 |
| 20260906040030 | 57 | 9 | 0.0 | 2.0 | 0.00 | 0.30 | 0.00 | 96 | 1013.9 |
| 20260906034531 | 58 | 9 | 0.0 | 2.0 | 0.00 | 0.30 | 0.30 | 96 | 1013.8 |
| 20260906033023 | 58 | 9 | 0.0 | 0.0 | 0.00 | 0.30 | 0.30 | 96 | 1013.7 |
| 20260906031524 | 58 | 9 | 0.0 | 0.0 | 0.01 | 0.30 | 0.30 | 96 | 1013.6 |
| 20260906030027 | 58 | 9 | 0.0 | 1.0 | 0.03 | 0.30 | 0.30 | 95 | 1013.5 |
| 20260906024531 | 58 | 9 | 0.0 | 2.0 | 0.04 | 0.30 | 0.30 | 1013.5 | |
| 20260906023045 | 58 | 9 | 0.0 | 2.0 | 0.05 | 0.30 | 0.30 | 95 | 1013.6 |
| 20260906021518 | 58 | 18 | 0.0 | 1.0 | 0.06 | 0.29 | 0.29 | 95 | 1013.7 |
| 20260906020026 | 58 | 45 | 0.0 | 2.0 | 0.06 | 0.27 | 0.27 | 95 | 1013.7 |
| 20260906014530 | 58 | 57 | 0.0 | 2.0 | 0.12 | 0.26 | 0.26 | 95 | 1013.7 |
| 20260906013041 | 58 | 75 | 0.0 | 2.0 | 0.12 | 0.25 | 0.25 | 94 | 1013.6 |
| 20260906011544 | 58 | 93 | 0.0 | 2.0 | 0.12 | 0.23 | 0.23 | 94 | 1013.8 |
| 20260906010024 | 58 | 352 | 1.0 | 2.0 | 0.13 | 0.21 | 0.21 | 93 | 1013.8 |
| 20260906004527 | 59 | 49 | 0.0 | 2.0 | 0.09 | 0.14 | 0.14 | 93 | 1013.6 |
| 20260906003027 | 59 | 340 | 0.0 | 2.0 | 0.12 | 0.13 | 0.13 | 92 | 1013.4 |
| 20260906001531 | 59 | 15 | 0.0 | 2.0 | 0.11 | 0.11 | 0.11 | 92 | 1013.5 |
| 20260906000049 | 60 | 73 | 1.0 | 5.0 | 0.08 | 0.08 | 0.08 | 90 | 1013.2 |
| 20260905234526 | 62 | 90 | 1.0 | 4.0 | 0.05 | 0.05 | 0.05 | 88 | 1013.0 |
| 20260905233029 | 64 | 151 | 0.0 | 2.0 | 0.01 | 0.01 | 0.01 | 83 | 1013.0 |
| 20260905231531 | 66 | 55 | 1.0 | 7.0 | 0.00 | 0.00 | 0.00 | 76 | 1012.5 |
| 20260905230032 | 67 | 289 | 0.0 | 3.0 | 0.00 | 0.00 | 0.00 | 73 | 1012.1 |
| 20260905224546 | 68 | 338 | 0.0 | 5.0 | 0.00 | 0.00 | 0.00 | 72 | 1012.0 |
| 20260905223027 | 68 | 62 | 0.0 | 2.0 | 0.00 | 0.00 | 0.00 | 72 | 1011.9 |
| 20260905221532 | 69 | 22 | 0.0 | 2.0 | 0.00 | 0.00 | 0.00 | 72 | 1011.8 |
| 20260905220034 | 70 | 293 | 1.0 | 4.0 | 0.00 | 0.00 | 0.00 | 68 | 1011.8 |
| 20260905214520 | 70 | 26 | 1.0 | 5.0 | 0.00 | 0.00 | 0.00 | 67 | 1011.7 |
| 20260905213030 | 70 | 336 | 0.0 | 2.0 | 0.00 | 0.00 | 0.00 | 74 | 1011.5 |
| 20260905211529 | 70 | 134 | 1.0 | 2.0 | 0.00 | 0.00 | 0.00 | 70 | 1011.3 |
| 20260905210009 | 70 | 209 | 0.0 | 2.0 | 0.00 | 0.00 | 0.00 | 72 | 1011.3 |
| 20260905204514 | 69 | 9 | 0.0 | 2.0 | 0.00 | 0.00 | 0.00 | 73 | 1011.1 |
| 20260905203022 | 70 | 65 | 0.0 | 2.0 | 0.00 | 0.00 | 0.00 | 72 | 1011.1 |
| 20260905201526 | 71 | 52 | 0.0 | 2.0 | 0.00 | 0.00 | 0.00 | 71 | 1011.1 |
| 20260905200038 | 72 | 237 | 0.0 | 2.0 | 0.00 | 0.00 | 0.00 | 67 | 1011.0 |
| 20260905194514 | 75 | 171 | 0.0 | 3.0 | 0.00 | 0.00 | 0.00 | 66 | 1010.9 |
| 20260905193020 | 76 | 84 | 1.0 | 4.0 | 0.00 | 0.00 | 0.00 | 64 | 1010.8 |
| 20260905191528 | 74 | 109 | 2.0 | 7.0 | 0.00 | 0.00 | 0.00 | 59 | 1010.9 |
| 20260905190027 | 73 | 217 | 0.0 | 4.0 | 0.00 | 0.00 | 0.00 | 65 | 1011.0 |
| 20260905184533 | 73 | 336 | 1.0 | 10.0 | 0.00 | 0.00 | 0.00 | 61 | 1011.0 |
| 20260905183034 | 73 | 71 | 2.0 | 7.0 | 0.00 | 0.00 | 0.00 | 60 | 1010.8 |
| 20260905181523 | 74 | 22 | 2.0 | 8.0 | 0.00 | 0.00 | 0.00 | 59 | 1010.8 |
| 20260905180033 | 74 | 96 | 3.0 | 10.0 | 0.00 | 0.00 | 0.00 | 63 | 1010.7 |
| 20260905174528 | 75 | 91 | 4.0 | 12.0 | 0.00 | 0.00 | 0.00 | 55 | 1010.7 |
| 20260905173013 | 74 | 331 | 2.0 | 12.0 | 0.00 | 0.00 | 0.00 | 63 | 1010.6 |
| 20260905171519 | 73 | 74 | 2.0 | 7.0 | 0.00 | 0.00 | 0.00 | 63 | 1010.5 |
| 20260905170025 | 72 | 5 | 3.0 | 10.0 | 0.00 | 0.00 | 0.00 | 62 | 1010.5 |
| 20260905164528 | 73 | 23 | 3.0 | 8.0 | 0.00 | 0.00 | 0.00 | 62 | 1010.7 |
| 20260905163030 | 73 | 59 | 2.0 | 8.0 | 0.00 | 0.00 | 0.00 | 65 | 1010.7 |
| 20260905161516 | 72 | 116 | 0.0 | 7.0 | 0.00 | 0.00 | 0.00 | 63 | 1010.8 |
| 20260905160028 | 71 | 346 | 3.0 | 13.0 | 0.00 | 0.00 | 0.00 | 67 | 1010.9 |
| 20260905154535 | 72 | 71 | 4.0 | 8.0 | 0.00 | 0.00 | 0.00 | 64 | 1010.8 |
| 20260905153033 | 70 | 69 | 1.0 | 9.0 | 0.00 | 0.00 | 0.00 | 69 | 1011.0 |
| 20260905151536 | 69 | 259 | 1.0 | 8.0 | 0.00 | 0.00 | 0.00 | 71 | 1011.1 |
| 20260905150024 | 71 | 321 | 2.0 | 9.0 | 0.00 | 0.00 | 0.00 | 66 | 1011.0 |
| 20260905144533 | 69 | 37 | 1.0 | 4.0 | 0.00 | 0.00 | 0.00 | 71 | 1011.0 |
| 20260905143029 | 70 | 32 | 2.0 | 7.0 | 0.00 | 0.00 | 0.00 | 71 | 1011.2 |
| 20260905141532 | 67 | 246 | 1.0 | 5.0 | 0.00 | 0.00 | 0.00 | 74 | 1011.0 |
| 20260905140034 | 68 | 299 | 3.0 | 12.0 | 0.00 | 0.00 | 0.00 | 76 | 1011.1 |
| 20260905134526 | 67 | 56 | 2.0 | 6.0 | 0.00 | 0.00 | 0.00 | 76 | 1010.9 |
| 20260905133039 | 66 | 321 | 2.0 | 5.0 | 0.00 | 0.00 | 0.00 | 78 | 1010.9 |
| 20260905131530 | 66 | 349 | 1.0 | 6.0 | 0.00 | 0.00 | 0.00 | 79 | 1010.9 |
| 20260905130035 | 66 | 301 | 2.0 | 4.0 | 0.00 | 0.00 | 0.00 | 80 | 1010.6 |
| 20260905124525 | 64 | 215 | 0.0 | 2.0 | 0.00 | 0.00 | 0.00 | 86 | 1010.7 |
| 20260905123026 | 63 | 155 | 1.0 | 3.0 | 0.00 | 0.00 | 0.00 | 86 | 1010.6 |
| 20260905121508 | 60 | 213 | 0.0 | 2.0 | 0.00 | 0.00 | 0.00 | 95 | 1010.6 |
| 20260905120017 | 59 | 123 | 0.0 | 2.0 | 0.00 | 0.00 | 0.00 | 96 | 1010.7 |
| 20260905114518 | 58 | 23 | 0.0 | 2.0 | 0.00 | 0.00 | 0.00 | 97 | 1010.6 |
| 20260905113031 | 57 | 106 | 0.0 | 2.0 | 0.00 | 0.00 | 0.00 | 96 | 1010.4 |
| 20260905111506 | 57 | 301 | 0.0 | 2.0 | 0.00 | 0.00 | 0.00 | 97 | 1010.2 |
| 20260905110030 | 56 | 321 | 0.0 | 0.0 | 0.00 | 0.00 | 0.00 | 97 | 1010.2 |
| 20260905104526 | 56 | 321 | 0.0 | 2.0 | 0.00 | 0.00 | 0.00 | 97 | 1010.2 |
| 20260905103026 | 56 | 11 | 0.0 | 2.0 | 0.00 | 0.00 | 0.00 | 97 | 1010.1 |
| 20260905101545 | 55 | 79 | 0.0 | 1.0 | 0.00 | 0.00 | 0.00 | 97 | 1010.1 |
| 20260905100010 | 55 | 111 | 0.0 | 2.0 | 0.00 | 0.00 | 0.00 | 97 | 1009.9 |
| 20260905094514 | 54 | 303 | 0.0 | 0.0 | 0.00 | 0.00 | 0.00 | 96 | 1009.9 |
| 20260905093019 | 54 | 303 | 0.0 | 2.0 | 0.00 | 0.00 | 0.00 | 96 | 1009.8 |
| 20260905091527 | 53 | 298 | 0.0 | 2.0 | 0.00 | 0.00 | 0.00 | 95 | 1009.7 |
| 20260905090028 | 54 | 298 | 0.0 | 0.0 | 0.00 | 0.00 | 0.00 | 95 | 1009.7 |
| 20260905084512 | 54 | 298 | 0.0 | 1.0 | 0.00 | 0.01 | 0.00 | 95 | 1009.6 |
| 20260905083017 | 54 | 298 | 0.0 | 2.0 | 0.00 | 0.01 | 0.00 | 95 | 1009.7 |